GW2974 Weather Reports


time (UTC)temp
F
wind
direction
speed
knots
gust
knots
rain 1hr
in
rain 24hr
in
rain mn
in
humidity
%
barometer
mb
20260505063032 71 65 1.7 7.0 0.00 0.00 0.00 78 1014.7
20260505061553 71 85 1.7 7.8 0.00 0.00 0.00 77 1015.0
20260505060036 71 97 0.9 7.0 0.00 0.00 0.00 76 1015.5
20260505054544 71 74 0.9 4.3 0.00 0.00 0.00 75 1015.4
20260505053035 72 110 1.7 6.1 0.00 0.00 0.00 74 1015.4
20260505051532 72 105 1.7 7.0 0.00 0.00 0.00 74 1015.6
20260505041537 73 0 0.9 6.1 0.00 0.00 0.00 72 1016.2
20260505040051 73 116 1.7 7.0 0.00 0.00 0.00 72 1016.2
20260505034540 73 0 0.9 8.7 0.00 0.00 0.00 71 1016.0
20260505033032 73 90 2.6 7.8 0.00 0.00 0.00 70 1016.2
20260505031535 74 155 0.9 6.1 0.00 0.00 0.00 70 1016.1
20260505030032 74 194 1.7 9.6 0.00 0.00 0.00 70 1016.0
20260505024537 74 0 1.7 6.1 0.00 0.00 0.00 69 1016.1
20260505023035 74 83 0.0 3.5 0.00 0.00 0.00 64 1016.1
20260505021535 74 59 0.0 3.5 0.00 0.00 0.00 62 1015.9
20260505020039 74 69 1.7 4.3 0.00 0.00 0.00 62 1015.7
20260505014540 74 323 0.9 3.5 0.00 0.00 0.00 63 1015.4
20260505013037 74 84 1.7 5.2 0.00 0.00 0.00 63 1015.4
20260505011538 75 24 0.9 4.3 0.00 0.00 0.00 62 1015.4
20260505010041 75 23 1.7 7.0 0.00 0.00 0.00 62 1015.2
20260505004538 75 19 0.9 7.0 0.00 0.00 0.00 63 1015.0
20260505003037 75 0 0.9 4.3 0.00 0.00 0.00 62 1014.7
20260505001539 75 46 0.9 6.1 0.00 0.00 0.00 62 1014.6
20260505000048 76 21 1.7 6.1 0.00 0.00 0.00 60 1014.6
20260504234536 77 304 0.9 5.2 0.00 0.00 0.00 60 1014.0
20260504233035 78 5 2.6 7.8 0.00 0.00 0.00 58 1014.0
20260504231538 78 18 0.9 7.0 0.00 0.00 0.00 57 1014.1
20260504230040 79 294 1.7 7.8 0.00 0.00 0.00 57 1014.0
20260504224538 80 72 3.5 8.7 0.00 0.00 0.00 54 1014.0
20260504223037 80 337 1.7 7.0 0.00 0.00 0.00 55 1013.9
20260504221539 80 312 2.6 11.3 0.00 0.00 0.00 54 1014.2
20260504220045 81 45 1.7 7.0 0.00 0.00 0.00 53 1014.4
20260504214536 82 273 1.7 7.0 0.00 0.00 0.00 53 1014.1
20260504213045 83 332 2.6 7.0 0.00 0.00 0.00 54 1014.1
20260504211539 83 327 1.7 7.8 0.00 0.00 0.00 52 1014.1
20260504210033 83 27 1.7 7.8 0.00 0.00 0.00 54 1014.1
20260504204539 84 338 1.7 11.3 0.00 0.00 0.00 51 1014.2
20260504203035 84 67 1.7 8.7 0.00 0.00 0.00 53 1014.2
20260504201535 83 5 2.6 9.6 0.00 0.00 0.00 52 1014.4
20260504200033 84 311 2.6 7.8 0.00 0.00 0.00 51 1014.6
20260504194532 84 352 2.6 7.8 0.00 0.00 0.00 51 1014.7
20260504193043 84 320 1.7 7.8 0.00 0.00 0.00 49 1014.9
20260504191536 83 136 2.6 9.6 0.00 0.00 0.00 43 1015.1
20260504190040 83 127 1.7 7.8 0.00 0.00 0.00 44 1015.2
20260504184535 82 75 3.5 7.0 0.00 0.00 0.00 45 1015.4
20260504183041 82 145 2.6 8.7 0.00 0.00 0.00 46 1015.6
20260504181536 83 96 1.7 7.0 0.00 0.00 0.00 43 1015.8
20260504180058 82 178 3.5 9.6 0.00 0.00 0.00 43 1016.2
20260504174532 82 169 2.6 7.8 0.00 0.00 0.00 44 1016.5
20260504173032 81 166 2.6 7.8 0.00 0.00 0.00 45 1016.5
20260504171533 81 172 3.5 10.4 0.00 0.00 0.00 47 1016.7
20260504081534 67 0 0.0 4.3 0.00 0.00 0.00 78 1016.1